Home > Weather > Salalah > Past weeks

Flag for Oman Weather for the Past 2 Weeks in Salalah, Oman

Now
88 °F

Passing clouds.


Feels Like: 98 °F
Forecast: 82 / 92 °F
Wind: 13 mph from South

Location: Salalah Airport

Current Time: May 2, 2016 at 12:37:55 PM

Latest Report: May 2, 2016 at 11:50 AM


Visibility: N/A

Pressure: 29.86 "Hg

Humidity: 66%

Dew Point: 75 °F

Location of SalalahLocation

Historic Weather in Salalah — Graph

°F

Salalah Temperature Yesterday

Maximum temperature yesterday: 88 °F (at 10:50 AM)
Minimum temperature yesterday: 82 °F (at 12:50 AM)
Average temperature yesterday: 85 °F

High & Low Weather Summary for the Past Weeks

 TemperatureHumidityPressure
High100 °F (Apr 17, 2:50 PM)89% (Apr 24, 2:50 AM)29.95 "Hg (Apr 24, 2:50 AM)
Low79 °F (Apr 19, 4:50 AM)10% (Apr 18, 1:50 PM)29.74 "Hg (Apr 24, 2:50 PM)
Average86 °F71%29.85 "Hg
* Reported Apr 17 10:50 AM — May 2 10:50 AM, Salalah, Weather by CustomWeather, © 2016

Note: Actual official high and low records may vary slightly from our data, if they occured in-between our weather recording intervals... More about our weather records

Advertising

Salalah Weather History for the Previous 24 Hours

Scroll right to see more
 ConditionsComfort  
Time TempWeatherWind HumidityBarometerVisibility
10:50 AM
Mon, May 2
88 °FPassing clouds.13 mph62%29.86 "HgN/A
9:50 AM88 °FPassing clouds.6 mph66%29.89 "HgN/A
8:50 AM86 °FPassing clouds.5 mph70%29.89 "HgN/A
7:50 AM84 °FScattered clouds.3 mph74%29.89 "HgN/A
6:50 AM82 °FPartly sunny.1 mph79%29.86 "HgN/A
5:50 AM81 °FPartly cloudy.1 mph84%29.86 "HgN/A
4:50 AM81 °FPartly cloudy.No wind84%29.83 "HgN/A
3:50 AM81 °FPassing clouds.No wind84%29.83 "HgN/A
2:50 AM82 °FPassing clouds.2 mph79%29.83 "HgN/A
1:50 AM82 °FPassing clouds.3 mph79%29.86 "HgN/A
12:50 AM82 °FPassing clouds.2 mph79%29.86 "HgN/A
11:50 PM
Sun, May 1
82 °FPassing clouds.3 mph79%29.89 "HgN/A
10:50 PM84 °FClear.5 mph74%29.89 "Hg10 mi
9:50 PM84 °FClear.5 mph74%29.89 "Hg10 mi
8:50 PM84 °FClear.7 mph74%29.86 "Hg10 mi
7:50 PM84 °FPassing clouds.8 mph74%29.86 "HgN/A
6:50 PM84 °FPassing clouds.10 mph74%29.83 "HgN/A
5:50 PM86 °FPassing clouds.12 mph70%29.83 "HgN/A
4:50 PM88 °FPassing clouds.15 mph62%29.80 "HgN/A
3:50 PM88 °FPassing clouds.14 mph66%29.80 "HgN/A
2:50 PM88 °FScattered clouds.14 mph66%29.83 "HgN/A
1:50 PM88 °FScattered clouds.14 mph66%29.83 "HgN/A
12:50 PM88 °FScattered clouds.14 mph66%29.86 "HgN/A
Weather by CustomWeather, © 2016

See weather overviewHow to use our weather pages